Terminal Aerodrome Forecast
Issued by NWS

Home | Current Version | Previous Version | Graphics & Text | Print | Product List | Glossary On
Versions: 1 2 3 4 5 6 7 8 9 10 11 12 13 14 15 16 17 18
000
FTUS43 KICT 201100
TAFHUT
TAF
KHUT 201121Z 2012/2112 17009KT P6SM SCT060 BKN150
     FM201500 18015G23KT P6SM VCSH SCT060 BKN150
     FM202100 17014G22KT P6SM VCSH BKN050
     FM210100 17008KT P6SM VCSH SCT020 BKN035=

USA.gov is the U.S. government's official web portal to all federal, state and local government web resources and services.